Regional Weather Roundup
Issued by NWS

Home | Current Version | Previous Version | Text Only | Print | Product List | Glossary On
Versions: 1 2 3 4 5 6 7 8 9 10 11 12 13 14 15 16 17 18 19 20 21 22 23 24 25 26 27 28 29 30 31 32 33 34 35 36 37 38 39 40 41 42 43 44 45 46 47 48 49 50
000
ASUS43 KMPX 172310
RWRMN
WEATHER ROUNDUP FOR MINNESOTA
NATIONAL WEATHER SERVICE TWIN CITIES/CHANHASSEN MN
600 PM CDT FRI APR 17 2015


NOTE: "FAIR" INDICATES FEW OR NO CLOUDS BELOW 12,000 FEET WITH NO
SIGNIFICANT WEATHER AND/OR OBSTRUCTIONS TO VISIBILITY. N/A MEANS
CURRENT SKY AND/OR WEATHER CONDITIONS ARE NOT AVAILABLE.

MNZ060>063-068>070-180000-
   Twin Cities Metro

CITY           SKY/WX    TMP DP  RH WIND       PRES   REMARKS
TWIN CITIES    MOSUNNY   74  32  21 W8        30.01S
ST PAUL        SUNNY     75  31  19 W7        30.01S
CRYSTAL        SUNNY     74  27  17 NW7       30.00F
BLAINE         SUNNY     73  30  20 W12       30.01S
LAKEVILLE      SUNNY     72  39  30 NW9       30.01S
EDEN PRAIRIE   SUNNY     74  33  22 NW6       30.01S
SOUTH ST PAUL  SUNNY     74  33  22 NW6       30.00F
LAKE ELMO      FAIR      73  32  21 W9        30.02S
$$
MNZ001>005-007-008-013>017-022>024-027-028-180000-
   Northwest Minnesota

CITY           SKY/WX    TMP DP  RH WIND       PRES   REMARKS
BEMIDJI        SUNNY     71  24  16 W16G28    29.99S
HALLOCK        SUNNY     64   9  11 N26G33    30.04S
ROSEAU         SUNNY     66  25  20 N15G28    30.03R
WARROAD        SUNNY     64  25  22 NW16G25   30.04R
THIEF RVR FALL SUNNY     66  27  22 N25       30.03R
CROOKSTON      SUNNY     68  28  22 N24G31    30.02R
FOSSTON        SUNNY     73  27  17 N23G31    30.00S
DETROIT LAKES  SUNNY     72  18  13 NW15      30.04S
MOORHEAD       SUNNY     75  18  11 NW12      30.02S
PARK RAPIDS    SUNNY     73  16  11 NW13      30.01S
MAHNOMEN       FAIR      73  22  14 NW16      30.00S
$$
MNZ006-009>011-018-025>026-180000-
   North Central Minnesota

CITY           SKY/WX    TMP DP  RH WIND       PRES   REMARKS
BAUDETTE       SUNNY     62  27  26 N18G26    30.01R
FLAG ISLAND    SUNNY     52  28  40 NW22      30.04R
INTL FALLS     SUNNY     67  27  22 NW20G32   29.96R
WASKISH        SUNNY     64  32  29 NW13G25   29.99R
BIG FORK       SUNNY     72  21  15 W10G18    29.97F
LONGVILLE      SUNNY     72  18  13 W9G20     30.00F
GRAND RAPIDS   SUNNY     70  23  17 W17G23    30.00S
ORR            SUNNY     70  18  13 W14G22    29.91F
COOK           SUNNY     70  25  18 W14       29.96S
WALKER         FAIR      71  21  15 W10G17    30.00S
$$
MNZ012-019>021-037-180000-
   Northeast Minnesota

CITY           SKY/WX    TMP DP  RH WIND       PRES   REMARKS
DULUTH         SUNNY     71  21  15 W15G24    29.97S
ELY            SUNNY     68  19  15 NW16G32   29.94S
HIBBING        SUNNY     70  21  15 NW15G24   29.97S
EVELETH        SUNNY     70  23  17 NW12G22   29.97F
DULUTH HARBOR  SUNNY     72  21  15 W20       29.95S
TWO HARBORS    SUNNY     75  36  23 W10G18    29.93S
SILVER BAY     SUNNY     72  19  14 W8G17     29.92R
GRAND MARAIS     N/A     45  34  65 SW5       29.93F
G MARAIS ARPRT SUNNY     57  21  24 S8        29.94S
$$
MNZ029>031-032-039>041-046>048-054>057-064-180000-
   West Central Minnesota

CITY           SKY/WX    TMP DP  RH WIND       PRES   REMARKS
FERGUS FALLS   MOSUNNY   72  10   9 W8        30.03F
WHEATON        MOSUNNY   70  25  18 NW6       30.06F
MORRIS         MOSUNNY   73  21  14 N9        30.04S
ALEXANDRIA     MOSUNNY   70  18  13 W12       30.06S
ELBOW LAKE     FAIR      70  23  17 NW9       30.04S
WADENA         SUNNY     70  28  21 NW12G17   30.03S
GLENWOOD       MOSUNNY   72  19  14 NW7       30.06S
APPLETON       SUNNY     73  10   9 NW9       30.05R
BENSON         SUNNY     73   1   6 N3        30.05S
ORTONVILLE     SUNNY     72  16  12 W3        30.05S
MADISON        SUNNY     72  10   9 NW8       30.05S
WILLMAR        FAIR      73  27  17 CALM      30.05S
$$
MNZ033>034-036-042>043-049>051-058-059-180000-
   Central Minnesota

CITY           SKY/WX    TMP DP  RH WIND       PRES   REMARKS
ST CLOUD       SUNNY     73  24  16 W9        30.02S
SAUK CENTRE    FAIR      70  22  16 W12G17    30.04S
PAYNESVILLE    SUNNY     70  21  16 W7        30.04S
AITKIN         SUNNY     75 -18   2 W7        29.98F
PINE RIVER     SUNNY     70  30  23 W10G16    30.03F
BRAINERD       SUNNY     71  21  15 W13       30.01F
STAPLES        SUNNY     70  19  14 NW14      30.03S
LONG PRAIRIE   FAIR      68  23  18 W10       30.05R
LITTLE FALLS   SUNNY     70  18  13 NW7       30.03R
LITCHFIELD     SUNNY     73  25  16 W5        30.04S
BUFFALO        SUNNY     72  28  19 NW5       30.03S
MAPLE LAKE     SUNNY     73  29  19 W5        30.03F
$$
MNZ037-044-045-052-053-180000-
   East Central Minnesota

CITY           SKY/WX    TMP DP  RH WIND       PRES   REMARKS
PRINCETON      SUNNY     73  25  16 W5        30.02S
MORA           SUNNY     70  25  18 NW3       30.02S
CAMBRIDGE      MOSUNNY   73  45  35 W8        30.00S
RUSH CITY      MOSUNNY   71  26  18 W7        30.01S
MOOSE LAKE     SUNNY     72  30  21 W9G17     29.97F
HINCKLEY       FAIR      72  27  18 W8        30.00F
CLOQUET        SUNNY     72   9   8 W10       29.98S
MCGREGOR       SUNNY     72  21  15 NW10G18   29.99F
$$
MNZ071>073-080-081-089-090-097-098-180000-
   Southwest Minnesota

CITY           SKY/WX    TMP DP  RH WIND       PRES   REMARKS
MONTEVIDEO     SUNNY     75  19  12 N9        30.05S
GRANITE FALLS  SUNNY     73  19  13 W8        30.06S
CANBY          SUNNY     72  20  14 N7        30.07S
MARSHALL       SUNNY     73  18  12 N10G17    30.04S
REDWOOD FALLS  SUNNY     74  26  16 NW6       30.03S
OLIVIA         SUNNY     72  27  18 NW7       30.03S
PIPESTONE      MOSUNNY   73  28  19 N9        30.05R
WINDOM         MOSUNNY   73  34  23 NW2       30.04S
WORTHINGTON    PTSUNNY   72  39  30 NE7       30.04S
JACKSON        PTSUNNY   73  32  21 N9        30.03F
TRACY          SUNNY     75  25  15 N8        30.05S
SLAYTON        MOSUNNY   73  28  19 N14       30.05S
$$
MNZ065>067-074>077-082>085-091>093-180000-
   South Central Minnesota

CITY           SKY/WX    TMP DP  RH WIND       PRES   REMARKS
MANKATO        SUNNY     75  37  25 NW9       30.01F
NEW ULM        SUNNY     73  34  23 NW10      30.02S
ST JAMES       SUNNY     77  28  16 W3        30.02F
FAIRMONT       MOSUNNY   75  39  27 NW6       30.02S
GLENCOE        SUNNY     74  34  22 NW6       30.02S
FARIBAULT      SUNNY     75  39  27 NW5       30.02S
OWATONNA       SUNNY     75  39  27 NW10      30.01S
ALBERT LEA     SUNNY     75  41  29 W7        30.01S
$$
MNZ078>079-086>088-094>096-180000-
   Southeast Minnesota

CITY           SKY/WX    TMP DP  RH WIND       PRES   REMARKS
ROCHESTER      SUNNY     74  45  35 NW9       30.01F
RED WING       SUNNY     75  37  25 NW7       29.99S
STANTON        SUNNY     74  38  27 NW9       30.00S
DODGE CENTER   SUNNY     73  45  35 NW8       30.02S
WINONA         MOSUNNY   77  45  31 NW7       29.99S
AUSTIN         SUNNY     73  45  35 W9        30.01S
PRESTON        SUNNY     72  43  34 NW3       30.01F
$$
ABBREVIATIONS USED IN REMARKS
   TC - TEMPERATURES IN CELSIUS
  WCI - WIND CHILL INDEX
   HX - HEAT INDEX
  VSB - VISIBILITY
$$


USA.gov is the U.S. government's official web portal to all federal, state and local government web resources and services.